Location: *
(48.5167°N, 15.4833°E)
Time: 19:12:14
(UTC+00:00)

Daily predictions for brighter satellites

Satellite Brightness Start Highest point End
(mag) Time Altitude Azimuth Time Altitude Azimuth Time Altitude Azimuth
USA 234 4.0 17:26:42 10° NE 17:33:02 53° NNW 17:39:22 10° W
Meteor 1-21 4.3 17:28:58 10° N 17:34:33 63° ENE 17:40:08 10° SSE
YAOGAN 1 3.2 17:33:07 10° S 17:37:24 64° WSW 17:41:44 10° NNW
BREEZE-M DEB (TANK) 3.9 17:36:26 10° WSW 17:38:09 18° SSW 17:40:52 10° SSE
ADEOS Rocket 4.5 17:34:28 10° NE 17:39:59 22° E 17:45:42 10° SE
Cosmos 1975 2.8 17:36:02 10° S 17:39:59 83° E 17:44:01 10° N
Meteor 2-9 Rocket 4.3 17:39:13 10° S 17:44:51 58° E 17:50:24 10° NNE
Okean 2 4.4 17:41:37 10° NNW 17:45:38 52° W 17:49:37 10° S
ATLAS 2AS CENTAUR R/B 3.0 17:38:26 10° NW 17:46:15 71° NE 17:53:26 10° SE
IRS-1A Rocket 4.3 17:40:45 10° SSE 17:46:27 71° ENE 17:52:04 10° NNW
Cosmos 1842 3.2 17:43:09 10° N 17:47:08 77° E 17:51:04 10° SSE
Lacrosse 4 Rocket 4.0 17:44:08 10° WNW 17:47:14 21° WSW 17:50:17 10° SSW
BREEZE-M DEB (TANK) 4.4 17:46:54 10° WSW 17:48:24 15° SW 17:49:49 10° S
Cosmos 405 4.0 17:45:09 10° NNW 17:48:35 51° W 17:51:58 10° S
Cosmos 1833 4.3 17:44:27 10° SSW 17:50:10 89° WNW 17:55:53 10° NNE
Cosmos 2297 Rocket 3.8 17:50:40 10° ESE 17:53:01 13° E 17:55:21 10° ENE
CZ-2C R/B 4.4 17:49:52 10° NNE 17:53:52 31° E 17:57:50 10° SSE
ARGOS 4.0 17:50:27 10° ESE 17:55:03 30° ENE 17:59:42 10° N
COSMO-SKYMED 1 4.2 17:51:15 10° N 17:55:21 41° WNW 17:59:24 10° SW
Cosmos 2151 Rocket 3.6 17:55:12 10° S 17:59:36 86° W 18:04:02 10° N
H-2A R/B 2.8 17:55:21 10° SE 17:59:40 32° ENE 18:04:06 10° N
Cosmos 2251 Rocket 3.9 17:55:54 10° NNW 18:01:16 71° WSW 18:06:37 10° SSE
Cosmos 1300 Rocket 3.7 17:58:40 10° SSW 18:02:58 78° W 18:07:19 10° N
Cosmos 2074 Rocket 4.1 17:56:44 10° N 18:03:01 83° W 18:09:14 10° S
Cosmos 405 Rocket 4.3 18:05:17 15° E 18:05:46 15° E 18:07:56 10° NE
Cosmos 2333 Rocket 2.2 18:02:20 10° NNW 18:08:04 87° ENE 18:13:48 10° SSE
Cosmos 1461 2.8 18:04:39 10° SSW 18:08:35 57° SE 18:12:30 10° NE
Cosmos 1544 3.0 18:06:24 10° S 18:09:55 57° E 18:13:29 10° NNE
ASTEX 1 3.5 18:06:27 10° NNE 18:11:13 50° E 18:15:57 10° SSE
CZ-4 R/B 4.2 18:09:16 10° SW 18:12:09 20° W 18:15:06 10° NW
SAR-Lupe-2 3.5 18:09:20 10° NNE 18:12:54 59° ESE 18:16:26 10° S
GEOS 3 Rocket 4.3 18:10:13 10° SSE 18:15:13 53° SW 18:20:14 10° NW
COSMOS 2455 3.7 18:12:25 10° NW 18:18:13 50° WSW 18:23:58 10° S
CZ-4C R/B 4.3 18:14:13 10° WNW 18:18:56 25° NNW 18:24:19 10° NE
Cosmos 2237 Rocket 2.6 18:15:10 10° NNW 18:20:43 48° NE 18:24:48 18° ESE
Cosmos 1190 Rocket 4.5 18:17:00 10° NNW 18:22:05 43° ENE 18:25:35 19° ESE
FREGAT/IRIS 2.7 18:20:08 10° S 18:22:55 66° WSW 18:25:44 10° NNW
In-Cosmos 22 4.4 18:18:43 10° N 18:23:51 46° ENE 18:28:07 15° SE
Cosmos 1441 Rocket 3.1 18:20:32 10° S 18:24:21 81° E 18:28:09 10° NNE
Cosmos 2154 Rocket 4.0 18:18:12 10° N 18:24:27 87° E 18:30:39 10° S
Cosmos 1455 Rocket 4.2 18:23:36 20° ESE 18:24:55 23° E 18:28:27 10° NE
SL-08 RB Rocket 4.4 18:25:24 20° ESE 18:28:07 37° ENE 18:32:26 10° N
Cosmos 1980 3.8 18:24:02 10° NNW 18:29:38 58° ENE 18:33:33 20° SE
ERBS 4.1 18:26:56 10° NW 18:29:44 23° NNE 18:31:32 16° ENE
Cosmos 389 Rocket 2.6 18:28:14 10° N 18:31:35 48° ENE 18:33:05 27° SE
SL-8 R/B 3.6 18:33:16 10° WSW 18:38:03 72° SSE 18:40:55 24° E
Cosmos 1674 4.0 18:36:45 10° NNE 18:39:41 23° ENE 18:39:41 23° ENE
SL-8 Rocket 4.1 18:34:50 10° N 18:40:55 53° ENE 18:45:17 19° SSE
SJ-6B 3.0 18:37:39 10° S 18:41:47 80° WSW 18:45:54 10° NNW
Resurs 1-3 3.8 18:39:28 25° SE 18:41:47 52° ENE 18:46:04 10° N
CZ-2C R/B 3.5 18:39:01 23° SE 18:41:53 45° ENE 18:47:05 10° N
Resurs 01 Rocket 2.1 18:42:03 29° ESE 18:43:48 43° ENE 18:48:01 10° N
Cosmos 1707 2.9 18:40:42 10° NNW 18:44:38 75° W 18:48:17 12° S
Okean 1 Rocket 3.4 18:40:33 10° SSW 18:44:51 67° W 18:49:13 10° N
Meteor 1-4 Rocket 2.5 18:43:28 10° N 18:47:01 55° ENE 18:47:52 42° SE
SL-16 R/B 3.0 18:44:32 10° NNW 18:49:45 35° NE 18:51:53 27° E
Cosmos 2056 Rocket 3.8 18:45:39 10° S 18:50:46 44° ESE 18:55:54 10° NE
USA 186 2.9 18:48:23 10° S 18:51:37 46° W 18:54:57 10° NNW
NOSS 3-4 (A) 3.9 18:46:36 10° NW 18:53:34 77° SW 18:59:02 21° SSE
NOSS 3-4 (C) 3.9 18:46:42 10° NW 18:53:41 77° SW 18:59:07 21° SSE
Meteor 2-17 Rocket 4.3 18:48:46 10° N 18:54:53 74° E 18:59:29 18° SSE
Cosmos 407 Rocket 3.4 18:50:19 10° NNW 18:55:30 85° ENE 18:58:21 27° SSE
COSMOS 2428 3.9 18:53:28 10° NW 18:58:46 41° WSW 19:04:02 10° S
Cosmos 2219 Rocket 3.3 18:53:54 10° NW 18:59:07 41° WSW 19:04:20 10° S
Cosmos 614 Rocket 3.9 18:53:59 10° NNW 18:59:15 87° ENE 19:02:02 28° SSE
Cosmos 1624 Rocket 4.0 18:58:00 10° S 19:03:04 56° ESE 19:08:10 10° NNE
SPOT 3 Rocket 4.2 19:02:25 10° S 19:07:26 53° W 19:12:29 10° NNW
Cosmos 1766 4.5 19:09:36 28° NE 19:09:36 28° NE 19:11:53 10° NNE
CZ-2C R/B 3.7 19:10:25 10° NNE 19:14:19 29° ENE 19:14:19 29° ENE
USA 234 4.2 19:10:20 15° ENE 19:15:24 43° N 19:21:29 10° WNW
Meteor 1-15 Rocket 4.3 19:10:26 10° SSW 19:16:12 81° WNW 19:22:06 10° N
Cosmos 1954 Rocket 4.0 19:11:02 10° NNW 19:16:16 67° ENE 19:17:33 49° SE
Cosmos 1892 Rocket 4.0 19:14:05 10° NNW 19:18:31 63° W 19:20:44 28° SSW
Okean 1-7 Rocket 4.1 19:15:55 10° NNW 19:20:17 58° W 19:22:38 26° SSW
ERS-1 Rocket 4.0 19:20:29 29° ENE 19:20:29 29° ENE 19:24:41 10° N
Spot 2 Rocket 3.5 19:20:07 51° ESE 19:21:02 60° ENE 19:26:01 10° N
Terra 3.7 19:23:12 17° NE 19:23:12 17° NE 19:25:36 10° NNE
Cosmos 2219 3.2 19:17:51 10° SSW 19:23:37 86° WNW 19:29:24 10° NNE
Cosmos 2227 Rocket 2.1 19:19:25 10° S 19:24:58 61° ESE 19:30:34 10° NNE
Cosmos 1140 Rocket 3.4 19:20:22 10° NNW 19:25:35 81° WSW 19:27:07 47° S
ADEOS Rocket 3.5 19:18:56 10° NNE 19:26:10 87° WNW 19:33:54 10° SSW
Cosmos 1437 Rocket 2.9 19:28:43 10° NNW 19:32:05 67° NNW 19:32:05 67° NNW
Cosmos 1371 Rocket 4.2 19:28:15 10° SSW 19:33:34 74° WNW 19:38:57 10° NNE
MetOp-B 4.0 19:33:43 59° SE 19:34:37 72° ENE 19:39:58 10° N
ARGOS 4.0 19:31:11 17° SSW 19:35:08 46° W 19:40:19 10° NNW
Cosmos 2297 Rocket 2.0 19:30:25 10° SSW 19:36:04 77° ESE 19:41:45 10° NNE
RESURS DK-1 3.8 19:32:46 10° NNW 19:35:39 27° NNE 19:35:39 27° NNE
ATLAS 2AS CENTAUR R/B 4.2 19:30:06 10° NW 19:36:43 33° WSW 19:41:52 14° S
H-2A R/B 3.2 19:35:31 16° SSW 19:39:01 38° W 19:43:42 10° NNW
Cosmos 405 Rocket 3.7 19:40:22 33° WSW 19:41:24 42° WNW 19:44:58 10° N
Cosmos 1626 4.3 19:40:13 10° N 19:41:28 18° NNE 19:41:28 18° NNE
Meteor 1-24 Rocket 3.8 19:41:22 10° NNW 19:47:07 81° W 19:48:37 52° S
Cosmos 676 Rocket 4.2 19:41:54 10° NNW 19:47:09 67° WSW 19:48:04 55° SSW
Cosmos 1943 4.4 19:49:22 10° NNW 19:54:15 28° NE 19:54:24 28° NE
Cosmos 1544 Rocket 4.4 20:00:47 43° WSW 20:01:36 48° WNW 20:05:57 10° N
Cosmos 1455 Rocket 4.4 20:00:39 26° WSW 20:02:32 39° WNW 20:06:44 10° N
USA 245 4.4 20:02:03 70° SSE 20:02:52 89° E 20:08:50 10° NNW
Cosmos 2237 Rocket 3.6 19:59:35 10° NW 20:04:35 32° WSW 20:06:39 25° SW
Nadezhda 3 Rocket 4.0 20:06:21 63° ENE 20:06:21 63° ENE 20:12:01 10° NNE
CZ-4C R/B 4.4 20:04:41 10° NW 20:09:43 23° NNE 20:14:29 13° ENE
Cosmos 1850 Rocket 4.3 20:13:56 10° NNW 20:18:18 63° NNW 20:18:18 63° NNW
SPOT 5 3.8 20:21:03 43° N 20:21:03 43° N 20:24:28 10° N
Resurs 01 Rocket 3.6 20:19:38 22° WSW 20:20:28 23° W 20:24:02 10° NW
Cosmos 1821 Rocket 3.9 20:18:11 10° N 20:24:15 85° NW 20:24:15 85° NW
Cosmos 1603 4.3 20:23:27 10° NNW 20:28:05 50° NNE 20:28:05 50° NNE
SL-16 R/B 2.9 20:28:36 10° NW 20:33:46 46° W 20:33:46 46° W
SPOT 1/Viking Rocket 4.2 20:38:50 52° NW 20:38:50 52° NW 20:42:55 10° NNW
Cosmos 2082 4.4 20:50:22 52° NW 20:50:22 52° NW 20:55:58 10° NNE
CZ-2C R/B 3.6 20:50:30 10° N 20:55:46 46° WNW 20:55:49 46° WNW
USA 234 3.5 20:57:41 60° NNE 20:57:49 60° NNE 21:04:14 10° NW
ERS-1 Rocket 4.4 21:00:29 35° WNW 21:00:29 35° WNW 21:03:51 10° NNW
Terra 3.5 21:02:05 31° NNW 21:02:05 31° NNW 21:04:34 10° NNW
Cosmos 2227 Rocket 4.0 21:04:34 10° WSW 21:09:27 29° NW 21:14:21 10° NNE
Cosmos 2297 Rocket 4.2 21:16:12 10° W 21:20:45 24° NW 21:25:20 10° N
Cosmos 2263 Rocket 4.3 21:41:34 19° NNE 21:41:34 19° NNE 21:43:08 10° NNE
CZ-4C R/B 3.6 21:53:30 10° NW 21:59:37 44° NNE 21:59:37 44° NNE
Cosmos 2082 Rocket 4.2 22:46:00 10° N 22:49:42 23° NNE 22:49:42 23° NNE
ATLAS CENTAUR R/B 4.5 23:22:56 16° N 23:22:56 16° N 23:24:14 10° NNE
Cosmos 2263 Rocket 4.2 23:23:14 22° NNW 23:23:14 22° NNW 23:26:33 10° N
Cosmos 2278 Rocket 4.2 23:37:30 22° NE 23:37:30 22° NE 23:39:40 10° NE
Resurs 1-4 Rocket 4.4 23:36:14 10° NE 23:38:02 17° ENE 23:38:02 17° ENE
USA 267 3.9 23:42:15 10° ENE 23:47:58 49° N 23:47:58 49° N
CZ-4C R/B 4.3 23:41:57 10° NW 23:44:46 27° NW 23:44:46 27° NW
SL-16 R/B 3.6 23:50:33 41° NE 23:50:33 41° NE 23:55:18 10° N
